Stanley, ND

7:21 PM CDT on April 27, 2017 (GMT -0500)
Stanley

Weather History for K08D - March, 2013

Change the Weather History Date:

Sunday, March 17, 2013

  Actual Average (KMIB) Record (KMIB)
Temperature  
Mean Temperature 12 °F -  
Max Temperature 19 °F 31 °F 66 °F (2012)
Min Temperature 5 °F 14 °F -4 °F (1997)
Degree Days  
Heating Degree Days 53    
Moisture  
Dew Point 10 °F    
Average Humidity 90    
Maximum Humidity 100    
Minimum Humidity 78    
Precipitation  
Precipitation 4.02 in - - ()
Sea Level Pressure  
Sea Level Pressure 29.66 in    
Wind  
Wind Speed 17 mph (SE)    
Max Wind Speed 25 mph    
Max Gust Speed 31 mph    
Visibility 4 miles    
Events Snow    
Averages and records for this station are not official NWS values.
T = Trace of Precipitation, MM = Missing Value Source: NWS Daily Summary

Daily Weather History Graph

Daily Weather History Graph

Search for Another Location

Airport or City:

Trip Planner

Search our weather history database for the weather conditions in past years. The results will help you decide how hot, cold, wet, or windy it might be!

Date:

Astronomy

Mar. 17, 2013 Rise Set
Actual Time 7:58 AM CDT 7:58 PM CDT
Civil Twilight 7:27 AM CDT 8:29 PM CDT
Nautical Twilight 6:50 AM CDT 9:06 PM CDT
Astronomical Twilight 6:13 AM CDT 9:43 PM CDT
Moon 10:46 AM CDT (3/17) 1:33 AM CDT (3/17)
Length of Visible Light 13h 02m
Length of Day
12h 00m
Waxing Crescent, 31% of the Moon is Illuminated
Mar 17
Waxing Crescent
Mar 19
First Quarter
Mar 27
Full
Apr 2
Last Quarter
Apr 10
New

Hourly Weather History & Observations

Time (CDT) Temp. Windchill Dew Point Humidity Pressure Visibility Wind Dir Wind Speed Gust Speed Precip Events Conditions
12:15 AM 5.0 °F -14.2 °F -0.4 °F 78% 30.03 in 10.0 mi SE 17.3 mph - N/A   Overcast
12:35 AM 5.0 °F -14.2 °F -0.4 °F 78% 30.02 in 10.0 mi SE 17.3 mph 21.9 mph N/A   Overcast
12:55 AM 5.0 °F -13.6 °F -0.4 °F 78% 30.01 in 10.0 mi SE 16.1 mph - N/A   Overcast
1:15 AM 5.0 °F -14.7 °F -0.4 °F 78% 30.00 in 10.0 mi SE 18.4 mph - N/A Snow Light Snow
1:35 AM 5.0 °F -14.7 °F 1.4 °F 85% 29.99 in 10.0 mi SE 18.4 mph 23.0 mph N/A Snow Light Snow
1:55 AM 5.0 °F -15.2 °F 1.4 °F 85% 29.96 in 10.0 mi SE 19.6 mph - N/A   Overcast
2:15 AM 6.8 °F -12.9 °F 1.4 °F 79% 29.95 in 10.0 mi SE 19.6 mph - N/A   Overcast
2:35 AM 6.8 °F -11.3 °F 1.4 °F 79% 29.94 in 10.0 mi SE 16.1 mph - N/A   Overcast
2:55 AM 6.8 °F -11.3 °F 3.2 °F 85% 29.92 in 10.0 mi SE 16.1 mph 21.9 mph N/A   Overcast
3:15 AM 6.8 °F -13.4 °F 3.2 °F 85% 29.90 in 5.0 mi SE 20.7 mph - N/A Snow Light Snow
3:35 AM 6.8 °F -10.7 °F 5.0 °F 92% 29.90 in 10.0 mi SE 15.0 mph 21.9 mph N/A Snow Light Snow
3:55 AM 6.8 °F -11.8 °F 5.0 °F 92% 29.89 in 6.0 mi SE 17.3 mph 23.0 mph N/A Snow Light Snow
4:15 AM 6.8 °F -10.0 °F 5.0 °F 92% 29.87 in 9.0 mi SE 13.8 mph 21.9 mph N/A Snow Light Snow
4:35 AM 8.6 °F -8.9 °F 5.0 °F 85% 29.86 in 10.0 mi SE 16.1 mph 19.6 mph N/A   Overcast
4:55 AM 8.6 °F -8.9 °F 5.0 °F 85% 29.85 in 4.0 mi SE 16.1 mph 25.3 mph N/A Snow Light Snow
5:15 AM 8.6 °F -8.9 °F 6.8 °F 92% 29.83 in 5.0 mi SE 16.1 mph 23.0 mph N/A   Overcast
5:35 AM 8.6 °F -10.0 °F 6.8 °F 92% 29.82 in 8.0 mi SE 18.4 mph 21.9 mph N/A   Overcast
5:55 AM 8.6 °F -8.9 °F 6.8 °F 92% 29.80 in 5.0 mi SE 16.1 mph - N/A Snow Light Snow
6:15 AM 10.4 °F -6.0 °F 6.8 °F 85% 29.79 in 7.0 mi SE 15.0 mph - N/A   Overcast
6:35 AM 10.4 °F -5.4 °F 6.8 °F 85% 29.78 in 7.0 mi SE 13.8 mph - N/A Snow Light Snow
6:55 AM 10.4 °F -4.8 °F 8.6 °F 92% 29.77 in 10.0 mi SE 12.7 mph 18.4 mph N/A   Overcast
7:15 AM 10.4 °F -7.2 °F 8.6 °F 92% 29.75 in 8.0 mi SE 17.3 mph 25.3 mph N/A   Overcast
7:35 AM 10.4 °F -8.6 °F 8.6 °F 92% 29.73 in 3.0 mi SE 20.7 mph 26.5 mph N/A   Overcast
7:55 AM 10.4 °F -8.2 °F 8.6 °F 92% 29.73 in 5.0 mi SSE 19.6 mph 24.2 mph N/A   Overcast
8:15 AM 10.4 °F -6.6 °F 8.6 °F 92% 29.72 in 4.0 mi SSE 16.1 mph 24.2 mph N/A Snow Light Snow
8:35 AM 12.2 °F -6.3 °F 8.6 °F 85% 29.70 in 4.0 mi SSE 20.7 mph - N/A Snow Light Snow
8:55 AM 12.2 °F -5.3 °F 8.6 °F 85% 29.69 in 3.0 mi SSE 18.4 mph - N/A   Overcast
9:15 AM 12.2 °F -6.7 °F 8.6 °F 85% 29.68 in 2.5 mi SSE 21.9 mph 26.5 mph N/A Snow Light Snow
9:35 AM 12.2 °F -6.3 °F 8.6 °F 85% 29.67 in 2.5 mi SSE 20.7 mph 25.3 mph N/A Snow Light Snow
10:15 AM 14.0 °F -4.3 °F 10.4 °F 86% 29.64 in 1.2 mi SSE 21.9 mph 31.1 mph N/A Snow Light Snow
10:35 AM 14.0 °F -4.7 °F 10.4 °F 86% 29.64 in 1.2 mi SSE 23.0 mph - N/A Snow Light Snow
10:55 AM 14.0 °F -4.7 °F 10.4 °F 86% 29.63 in 2.0 mi SSE 23.0 mph 26.5 mph N/A   Overcast
11:15 AM 14.0 °F -5.1 °F 10.4 °F 86% 29.62 in 1.0 mi SSE 24.2 mph 29.9 mph N/A Snow Light Snow
11:35 AM 14.0 °F -4.7 °F 10.4 °F 86% 29.61 in 1.2 mi SSE 23.0 mph 29.9 mph N/A   Overcast
11:55 AM 14.0 °F -4.3 °F 10.4 °F 86% 29.59 in 1.2 mi SSE 21.9 mph - N/A   Overcast
12:15 PM 14.0 °F -2.5 °F 10.4 °F 86% 29.59 in - SSE 17.3 mph 25.3 mph N/A Snow Heavy Snow
12:35 PM 15.8 °F -0.6 °F 12.2 °F 86% 29.58 in - SSE 18.4 mph 26.5 mph N/A   Overcast
12:55 PM 15.8 °F -2.3 °F 14.0 °F 93% 29.56 in 1.0 mi SSE 23.0 mph 28.8 mph N/A Snow Light Snow
1:15 PM 15.8 °F -1.5 °F 14.0 °F 93% 29.54 in 2.0 mi SSE 20.7 mph - N/A   Overcast
1:35 PM 15.8 °F -0.2 °F 14.0 °F 93% 29.54 in 1.8 mi SE 17.3 mph 26.5 mph N/A   Overcast
1:55 PM 17.6 °F 0.1 °F 15.8 °F 93% 29.52 in 1.0 mi SE 23.0 mph 31.1 mph N/A Snow Light Snow
2:15 PM 17.6 °F 0.1 °F 15.8 °F 93% 29.52 in 0.8 mi SSE 23.0 mph 29.9 mph N/A   Overcast
2:35 PM 17.6 °F -0.6 °F 15.8 °F 93% 29.51 in 1.2 mi SSE 25.3 mph - N/A   Overcast
2:55 PM 17.6 °F 0.9 °F 15.8 °F 93% 29.50 in 3.0 mi SSE 20.7 mph 24.2 mph N/A   Overcast
3:15 PM 17.6 °F 1.3 °F 15.8 °F 93% 29.49 in 5.0 mi SSE 19.6 mph 23.0 mph N/A   Overcast
3:35 PM 17.6 °F 1.7 °F 17.6 °F 100% 29.49 in 4.0 mi SSE 18.4 mph - N/A   Overcast
3:55 PM 17.6 °F 1.7 °F 17.6 °F 100% 29.49 in 0.5 mi SSE 18.4 mph 24.2 mph N/A Snow Snow
4:15 PM 17.6 °F 3.7 °F 17.6 °F 100% 29.49 in - SSE 13.8 mph - 0.01 in Snow Heavy Snow
4:35 PM 17.6 °F 2.7 °F 17.6 °F 100% 29.48 in - SSE 16.1 mph - 0.05 in Snow Heavy Snow
4:55 PM 19.4 °F 7.2 °F 17.6 °F 93% 29.48 in - SE 11.5 mph - 0.09 in Snow Heavy Snow
5:15 PM 19.4 °F 7.9 °F 17.6 °F 93% 29.48 in - SE 10.4 mph - 0.03 in Snow Heavy Snow
5:35 PM 19.4 °F 7.9 °F 17.6 °F 93% 29.48 in - SE 10.4 mph - 0.07 in Snow Heavy Snow
5:55 PM 19.4 °F 8.6 °F 17.6 °F 93% 29.48 in 0.5 mi ESE 9.2 mph - 0.21 in Snow Snow
6:15 PM 19.4 °F 9.5 °F 17.6 °F 93% 29.48 in 0.5 mi ESE 8.1 mph - 0.15 in Snow Snow
6:35 PM 19.4 °F 10.4 °F 17.6 °F 93% 29.48 in 0.5 mi ESE 6.9 mph - 0.37 in Snow Snow
6:55 PM 19.4 °F 9.5 °F 17.6 °F 93% 29.49 in 0.8 mi ESE 8.1 mph - 0.50 in Snow Light Snow
7:15 PM 19.4 °F 11.5 °F 17.6 °F 93% 29.49 in 0.8 mi ESE 5.8 mph - 0.06 in Snow Light Snow
7:35 PM 19.4 °F 12.8 °F 17.6 °F 93% 29.49 in 0.5 mi East 4.6 mph - 0.21 in Snow Snow
7:55 PM 19.4 °F 14.3 °F 17.6 °F 93% 29.51 in 0.5 mi ENE 3.5 mph - 0.37 in Snow Snow
8:15 PM 17.6 °F 10.7 °F 17.6 °F 100% 29.52 in 0.5 mi NE 4.6 mph - 0.19 in Snow Snow
8:35 PM 17.6 °F 12.3 °F 17.6 °F 100% 29.52 in 2.0 mi NNE 3.5 mph - 0.45 in Snow Light Snow
8:55 PM 17.6 °F 10.7 °F 17.6 °F 100% 29.52 in 0.8 mi North 4.6 mph - 1.14 in Snow Light Snow
9:15 PM 17.6 °F 7.3 °F 15.8 °F 93% 29.53 in 2.5 mi North 8.1 mph - 0.26 in Snow Light Snow
9:35 PM 15.8 °F 3.4 °F 14.0 °F 93% 29.53 in 3.0 mi North 10.4 mph - 0.61 in Snow Light Snow
9:55 PM 14.0 °F -0.2 °F 14.0 °F 100% 29.54 in 7.0 mi North 12.7 mph - 0.69 in Snow Light Snow
10:15 PM 14.0 °F -1.4 °F 12.2 °F 93% 29.56 in 2.5 mi NNW 15.0 mph - 0.06 in Snow Light Snow
10:35 PM 12.2 °F -7.1 °F 10.4 °F 92% 29.57 in 1.0 mi NNW 23.0 mph 31.1 mph 0.47 in Snow Light Snow
10:55 PM 8.6 °F -12.7 °F 6.8 °F 92% 29.58 in 1.8 mi NNW 25.3 mph 31.1 mph 0.63 in Snow Light Snow
11:15 PM 8.6 °F -12.3 °F 5.0 °F 85% 29.60 in 1.8 mi NNW 24.2 mph 28.8 mph 0.11 in Snow Light Snow
11:35 PM 8.6 °F -10.5 °F 5.0 °F 85% 29.62 in 2.0 mi NNW 19.6 mph 27.6 mph 0.24 in Snow Light Snow
11:55 PM 8.6 °F -10.5 °F 5.0 °F 85% 29.63 in 2.0 mi NW 19.6 mph 26.5 mph 0.39 in Snow Light Snow